Wind_Speed
13 14 16 17 18 17 16 15 15 15 15 14 14 14 14 16 18 19 20 20 21 21 22 23 24 24 25 24 24 24 23 23 24 25 28 29 31 32 34 35 36 35
14 16 17 17 17 17 15 15 14 14 14 14 14 15 15 16 18 19 20 20 21 22 23 23 23 24 24 25 25 25 24 24 24 25 28 29 29 30 33 34 34 32
16 17 18 17 17 16 15 14 15 15 15 15 16 16 16 17 18 19 20 21 22 23 24 24 24 24 25 26 26 26 25 25 25 26 29 29 28 29 30 30 29 28
17 18 18 17 16 15 15 15 15 15 16 16 16 17 17 18 18 19 20 21 22 23 24 25 25 26 27 28 28 28 28 27 26 27 29 30 29 28 28 27 25 25
17 17 17 16 15 15 15 16 16 16 16 16 17 17 18 18 19 20 21 22 23 24 25 25 26 27 28 29 30 30 30 30 28 28 29 29 29 28 28 26 24 24
17 17 16 15 15 15 16 16 16 16 17 17 17 18 18 19 20 21 21 22 24 25 26 27 28 29 30 31 31 32 32 31 30 28 28 28 28 28 27 26 24 23
16 16 16 15 16 16 16 17 17 17 17 18 18 19 19 20 21 22 23 24 25 26 27 28 29 30 31 32 33 33 32 32 31 29 28 27 26 26 26 25 24 23
16 16 16 16 17 17 18 18 18 18 19 19 19 20 20 21 22 24 25 26 27 27 28 29 30 31 32 33 34 34 33 32 30 29 28 26 25 25 25 25 24 24
15 15 16 17 18 18 18 18 18 19 19 20 20 21 22 22 24 25 27 28 28 29 29 30 31 32 33 34 34 34 34 32 30 29 28 26 25 23 24 25 25 24
14 15 16 16 17 18 18 19 19 19 20 20 21 22 23 24 25 27 28 29 30 30 31 31 32 32 33 34 35 35 34 32 30 28 27 26 24 23 23 24 25 24
15 15 16 17 18 18 19 19 20 20 20 21 22 23 24 25 26 27 28 30 31 32 32 33 33 33 34 34 35 35 35 33 30 27 26 26 24 22 23 24 24 25
15 16 17 18 19 19 20 20 20 21 21 22 22 23 24 25 27 28 29 30 32 33 33 33 34 34 34 34 35 35 34 32 29 26 25 25 23 22 22 24 25 25
16 16 17 18 19 20 21 21 21 21 22 23 24 25 26 27 28 29 30 31 32 33 33 34 34 35 35 35 34 34 34 31 28 26 24 24 23 22 21 23 25 25
16 17 18 18 19 20 21 21 22 23 24 25 26 27 28 28 29 30 30 31 31 32 33 33 34 34 35 35 34 34 33 31 28 25 23 23 22 21 21 23 24 25
16 17 18 19 19 20 21 23 24 25 26 27 28 29 29 29 29 29 30 30 30 31 31 32 33 34 35 35 34 33 32 30 27 25 23 22 22 21 21 22 24 25
16 17 18 19 20 21 22 24 25 26 28 29 30 30 30 30 29 29 29 29 29 29 30 31 32 33 33 34 33 32 30 28 26 24 23 22 22 21 21 22 23 24
17 18 19 20 21 22 23 25 26 27 29 29 29 29 28 28 27 27 28 28 28 29 30 31 32 32 32 31 31 30 28 27 25 23 22 22 22 21 20 20 21 22
19 20 20 21 21 23 24 26 27 28 28 28 28 27 26 26 26 26 27 27 28 30 31 32 33 33 32 30 29 28 27 25 24 23 22 22 22 21 19 19 19 19
20 20 21 21 23 24 26 27 27 27 27 27 26 26 25 25 26 26 27 27 28 30 31 32 33 33 31 30 28 26 25 23 23 22 21 21 20 20 19 18 18 18
20 20 22 23 24 25 26 26 26 26 26 26 26 26 26 25 26 26 27 28 28 29 30 31 31 30 28 27 26 24 22 21 21 20 20 19 19 18 17 17 17 17
20 22 23 24 25 26 26 26 26 26 26 26 26 26 25 25 26 26 27 27 27 28 29 29 28 27 25 23 22 21 20 18 18 18 17 16 15 15 14 15 15 16
22 23 24 24 25 25 25 25 25 25 25 25 25 25 25 25 26 26 26 25 25 26 26 25 25 24 22 20 18 17 17 15 14 13 12 12 13 13 13 14 16 18
22 23 24 24 24 24 24 24 24 25 25 25 24 24 23 23 23 23 23 22 22 23 23 22 22 21 20 18 16 15 14 12 11 11 11 12 14 15 15 17 19 20
22 22 22 22 22 22 22 23 23 23 23 24 23 22 21 21 21 21 21 21 20 20 20 21 21 19 17 15 14 13 13 12 13 14 14 15 17 17 16 17 18 19
21 21 20 20 20 21 21 21 22 22 22 22 23 23 22 22 21 21 21 21 21 19 19 20 19 17 15 14 12 12 12 13 14 14 13 13 14 13 13 14 14 15
19 19 19 19 19 20 21 22 22 22 22 22 22 23 23 22 21 21 20 20 20 19 19 19 18 16 15 13 12 12 13 13 13 12 11 10 11 10 10 11 11 13
Wind_Direction
270 275 280 284 289 291 290 289 291 296 299 303 306 310 312 312 312 311 312 312 313 313 311 308 306 304 303 301 300 299 297 294 289 286 284 283 283 283 284 284 282 277
277 282 286 290 293 294 294 296 298 300 302 303 305 308 311 312 312 311 312 313 314 313 312 310 309 307 306 304 303 303 303 300 296 291 288 288 287 287 288 288 284 278
283 286 290 294 295 296 297 298 299 299 299 300 302 307 311 312 312 312 313 313 313 312 311 311 311 310 308 307 306 305 305 304 300 295 292 293 292 292 291 288 283 276
285 289 293 294 294 294 295 296 296 295 295 297 301 306 310 312 313 312 312 312 311 310 310 310 311 310 309 308 307 307 306 305 303 298 296 297 295 294 293 288 281 275
286 289 291 290 290 291 292 292 293 294 295 298 301 303 306 308 310 311 311 311 311 311 311 311 311 310 308 307 306 306 306 306 304 301 300 299 297 295 294 288 281 276
284 286 286 286 287 288 289 290 292 294 296 296 297 298 301 303 306 309 310 311 312 312 312 312 312 310 309 307 306 305 306 306 305 303 302 300 297 294 293 289 282 277
283 284 284 284 285 286 288 290 292 293 294 294 294 294 296 299 303 307 310 311 311 311 310 310 310 310 308 307 307 306 306 306 306 305 304 301 296 293 291 288 282 278
284 285 285 286 287 289 289 290 291 293 293 293 293 293 294 297 301 306 309 310 310 309 308 308 308 308 307 307 307 306 306 306 307 306 304 301 296 291 289 285 281 278
287 287 287 287 288 288 289 290 292 293 294 294 294 294 296 297 299 302 305 307 307 307 306 305 305 306 306 306 305 305 306 306 307 305 304 301 296 289 285 283 280 279
288 287 287 287 287 288 289 292 295 296 296 296 296 296 296 296 298 300 303 305 305 304 303 303 304 305 305 305 305 305 306 306 307 306 303 301 296 288 281 279 279 279
285 286 287 288 289 291 293 296 298 299 299 299 299 298 298 298 299 300 302 304 303 302 301 301 302 304 305 305 305 305 306 307 307 305 303 300 295 287 280 277 277 279
284 286 289 291 293 296 298 299 301 301 302 302 301 301 300 300 300 301 301 301 301 300 299 299 301 303 305 305 304 304 306 306 306 304 302 299 294 287 280 276 277 277
286 290 293 296 298 299 300 301 302 302 302 302 302 302 302 301 300 299 299 298 298 297 297 298 300 302 304 305 304 304 305 306 305 302 300 298 294 287 279 275 276 276
289 294 297 299 300 301 301 301 301 301 300 301 301 301 301 300 298 297 296 296 295 295 296 297 300 303 305 306 305 304 304 305 303 300 297 296 294 288 280 275 274 275
291 294 296 298 298 299 299 299 299 299 300 300 301 301 300 299 297 296 295 295 295 295 295 297 300 304 306 306 306 304 304 303 301 298 295 293 292 288 283 278 276 276
288 290 292 293 295 296 296 297 298 298 299 300 301 301 300 299 297 297 296 296 296 296 297 300 303 305 307 307 306 304 304 302 299 296 293 291 289 288 285 283 280 279
285 287 289 291 293 294 296 297 298 299 300 301 302 302 301 300 300 300 299 299 300 300 302 305 307 309 309 309 306 304 303 301 297 293 290 288 288 287 285 283 281 280
286 287 289 291 293 295 297 298 299 300 302 303 304 303 303 302 302 302 302 303 304 306 307 309 311 312 312 311 308 306 304 300 296 292 288 286 286 285 282 281 280 281
288 289 291 294 295 297 298 299 300 301 302 303 303 303 304 304 303 304 305 306 307 308 310 311 312 313 314 313 311 309 306 301 296 291 287 284 284 284 283 283 284 285
291 294 296 297 298 299 300 301 302 302 303 303 303 304 305 306 306 306 307 308 309 310 311 312 312 314 315 315 314 311 307 301 295 290 286 285 286 287 288 289 292 293
296 298 300 300 301 301 302 303 304 304 305 305 305 306 307 308 308 308 309 310 311 311 312 312 313 315 316 315 312 309 306 302 296 290 287 288 291 292 293 296 300 302
299 300 301 302 303 304 305 306 306 307 307 307 308 309 310 310 310 310 311 312 312 312 313 315 315 315 314 312 307 302 300 301 299 294 288 286 289 291 294 300 305 308
300 301 302 303 305 306 307 307 308 309 309 309 309 310 310 310 310 311 312 313 314 315 314 315 315 314 312 311 309 304 299 293 287 288 288 285 288 292 297 302 306 307
302 303 305 307 309 310 311 312 313 313 314 313 313 314 314 314 314 314 315 316 316 315 315 315 315 313 309 306 306 307 302 289 280 281 282 283 286 293 297 299 304 310
305 308 311 314 316 317 317 318 318 318 319 319 320 320 321 321 321 320 319 319 319 318 317 316 314 310 305 298 293 294 292 286 284 285 283 283 285 289 292 296 307 319
312 316 318 320 321 320 320 320 321 322 322 323 324 324 324 324 324 322 321 321 322 321 320 319 316 312 307 296 283 283 285 282 283 287 290 292 291 291 297 305 316 322
Height
3143 3143 3142 3142 3141 3140 3140 3139 3139 3138 3138 3137 3136 3135 3134 3133 3132 3131 3130 3129 3128 3127 3126 3125 3124 3122 3121 3119 3117 3115 3114 3113 3111 3110 3109 3107 3106 3104 3103 3101 3100 3099
3141 3141 3140 3140 3139 3138 3138 3138 3137 3137 3136 3135 3134 3133 3133 3132 3131 3130 3128 3127 3126 3125 3124 3123 3122 3120 3119 3117 3115 3113 3111 3110 3109 3107 3105 3104 3103 3101 3099 3097 3095 3094
3139 3139 3138 3138 3137 3137 3136 3136 3135 3135 3134 3133 3132 3132 3131 3131 3130 3128 3127 3126 3125 3124 3122 3121 3120 3118 3116 3115 3112 3110 3109 3107 3106 3104 3102 3100 3099 3098 3096 3093 3091 3090
3137 3137 3136 3136 3135 3135 3135 3134 3134 3133 3132 3132 3131 3130 3130 3129 3128 3127 3126 3124 3123 3122 3121 3119 3118 3116 3114 3112 3110 3108 3106 3104 3103 3101 3098 3097 3096 3094 3092 3090 3088 3087
3136 3135 3135 3134 3134 3134 3134 3133 3132 3132 3131 3130 3129 3129 3128 3127 3126 3125 3124 3123 3122 3120 3119 3117 3115 3113 3112 3110 3107 3105 3103 3102 3100 3098 3095 3094 3092 3090 3089 3087 3085 3085
3134 3134 3133 3133 3133 3133 3132 3132 3131 3130 3129 3129 3128 3127 3126 3126 3125 3124 3123 3121 3120 3118 3116 3114 3112 3111 3109 3107 3105 3103 3101 3099 3097 3095 3093 3091 3089 3087 3086 3084 3083 3082
3133 3132 3132 3132 3131 3131 3130 3130 3129 3129 3128 3127 3126 3126 3125 3124 3123 3122 3120 3119 3118 3116 3114 3112 3110 3108 3106 3104 3102 3100 3098 3096 3094 3092 3090 3088 3086 3085 3083 3082 3081 3080
3131 3130 3130 3130 3129 3129 3128 3128 3127 3127 3126 3125 3125 3124 3123 3122 3121 3119 3118 3116 3115 3114 3112 3110 3108 3106 3104 3101 3099 3097 3095 3093 3091 3089 3087 3085 3083 3082 3081 3080 3079 3078
3129 3128 3128 3128 3127 3127 3127 3126 3126 3125 3124 3123 3122 3121 3120 3119 3118 3117 3116 3114 3113 3111 3109 3108 3106 3103 3101 3099 3096 3094 3092 3090 3088 3086 3084 3082 3080 3079 3079 3078 3076 3075
3127 3127 3126 3126 3126 3125 3125 3124 3124 3123 3122 3121 3120 3119 3118 3117 3116 3115 3113 3111 3110 3108 3106 3105 3103 3101 3098 3096 3093 3091 3089 3087 3086 3083 3081 3079 3078 3076 3076 3075 3074 3073
3125 3125 3125 3124 3124 3123 3123 3122 3121 3120 3120 3119 3118 3116 3115 3114 3113 3112 3110 3108 3107 3105 3103 3101 3099 3097 3095 3093 3091 3088 3086 3084 3082 3081 3078 3076 3075 3074 3073 3072 3071 3071
3124 3123 3123 3122 3122 3121 3121 3120 3119 3118 3117 3116 3115 3114 3113 3111 3110 3109 3107 3106 3104 3102 3100 3098 3096 3094 3092 3090 3088 3085 3083 3081 3079 3077 3076 3074 3072 3071 3070 3069 3069 3068
3122 3121 3121 3120 3120 3119 3119 3118 3117 3116 3115 3114 3113 3111 3110 3109 3107 3106 3104 3103 3101 3099 3097 3095 3093 3091 3089 3087 3084 3082 3080 3078 3076 3074 3072 3071 3069 3068 3067 3066 3065 3065
3120 3119 3119 3118 3118 3117 3117 3116 3115 3114 3113 3111 3110 3109 3107 3106 3104 3103 3101 3100 3098 3096 3094 3092 3090 3088 3086 3083 3081 3079 3076 3074 3073 3071 3069 3068 3067 3065 3064 3063 3062 3062
3117 3117 3117 3116 3116 3115 3114 3114 3112 3111 3110 3109 3107 3106 3104 3103 3101 3099 3098 3096 3095 3093 3091 3089 3087 3085 3082 3080 3078 3076 3073 3071 3069 3068 3066 3065 3064 3063 3062 3061 3059 3059
3115 3115 3115 3114 3114 3113 3112 3111 3110 3108 3107 3105 3104 3102 3101 3099 3097 3096 3095 3093 3091 3090 3088 3086 3084 3082 3079 3077 3074 3072 3071 3068 3066 3065 3063 3062 3061 3060 3059 3058 3057 3056
3113 3113 3113 3112 3111 3110 3109 3108 3107 3105 3104 3102 3101 3099 3097 3096 3094 3093 3091 3090 3088 3086 3084 3082 3080 3078 3076 3074 3071 3069 3067 3065 3063 3062 3060 3059 3058 3057 3056 3055 3054 3053
3112 3111 3111 3110 3109 3108 3106 3105 3104 3102 3101 3099 3097 3096 3094 3093 3091 3090 3088 3087 3085 3083 3081 3078 3076 3074 3072 3070 3068 3066 3064 3062 3060 3059 3057 3056 3055 3054 3053 3053 3052 3051
3109 3109 3108 3107 3106 3105 3103 3102 3101 3099 3098 3096 3094 3093 3091 3090 3088 3087 3085 3083 3082 3080 3077 3075 3073 3071 3069 3067 3065 3063 3061 3059 3057 3056 3054 3053 3052 3051 3051 3050 3050 3049
3107 3106 3105 3104 3103 3101 3100 3099 3097 3096 3094 3093 3091 3089 3088 3086 3085 3083 3082 3080 3078 3076 3074 3072 3070 3068 3066 3064 3061 3059 3058 3056 3055 3053 3052 3051 3050 3050 3049 3048 3047 3047
3104 3103 3102 3101 3100 3098 3097 3095 3094 3092 3091 3089 3088 3086 3085 3083 3082 3080 3079 3077 3075 3073 3071 3069 3067 3065 3064 3062 3059 3057 3056 3054 3052 3051 3050 3049 3048 3048 3047 3046 3045 3044
3102 3101 3099 3098 3097 3095 3094 3092 3091 3089 3087 3086 3085 3083 3082 3080 3079 3077 3076 3074 3072 3070 3068 3066 3064 3063 3061 3060 3058 3056 3054 3052 3051 3050 3049 3048 3046 3045 3044 3043 3042 3041
3099 3098 3097 3096 3094 3092 3091 3089 3088 3086 3085 3083 3082 3081 3079 3078 3076 3075 3073 3071 3069 3068 3066 3064 3062 3061 3059 3058 3056 3054 3053 3051 3050 3048 3047 3046 3044 3043 3042 3041 3040 3038
3097 3096 3094 3093 3091 3090 3088 3087 3086 3084 3082 3080 3079 3078 3077 3076 3074 3072 3071 3069 3067 3066 3064 3062 3060 3059 3057 3056 3054 3053 3051 3050 3049 3047 3045 3044 3043 3041 3040 3039 3038 3036
3095 3093 3092 3091 3089 3088 3086 3085 3083 3082 3080 3078 3077 3075 3074 3073 3071 3070 3068 3066 3065 3064 3062 3060 3058 3057 3055 3054 3053 3052 3050 3049 3047 3045 3044 3043 3041 3040 3038 3037 3035 3034
3092 3091 3090 3089 3087 3086 3084 3083 3081 3080 3078 3076 3075 3073 3071 3070 3069 3068 3066 3064 3063 3061 3060 3058 3056 3055 3054 3052 3051 3050 3049 3047 3046 3044 3043 3041 3040 3038 3036 3035 3034 3032